PROFILE

 METAR AND TAF INFORMATION
ADDS - METARS form results

(0344 UTC 13 July 2020)
http://aviationweather.gov/metar/data/
 
LIMJ 130320Z 03008KT CAVOK 23/12 Q1018
LIMJ 130250Z 04010KT CAVOK 23/14 Q1018
TAF LIMJ 122300Z 1300/1324 02010KT 9999 SCT030 

 AIRPORT MAP

 RUNWAY INFORMATION
Runway 10 Runway length 9564 ft Runway width 148 ft
Runway elevation 9 ft Runway displaced threshold 0 ft Runway heading 105
Runway 28 Runway length 9564 ft Runway width 148 ft
Runway elevation 12 ft Runway displaced threshold 528 ft Runway heading 285

 AIRPORT FREQUENCIES
Type APP Name APP Frequency 119.6 MHZ
Type ATIS Name ATIS Frequency 122.825 MHZ
Type TWR Name TWR Frequency 118.6 MHZ

 AIRPORT NEAR NAVIGATION AIDS
Type VOR-DME Name Genova Frequency 112800 KHZ
Type NDB Name Genova Frequency 318 KHZ
Type VOR-DME Name Genova Sestri Frequency 108600 KHZ